Wind_Speed
16 15 16 16 13 11 10 9 8 6 5 6 6 7 8 7 6 4 3 5 4 2 3 3 3 4 3 3 2 3 3 2 5 7 8 8 11 12 14 17 18 18 18 17 14 13 14 14 13 12 12 12 13 13 15 16 17 17 18 18 18 19 21 22 22 22 22 21 20 20 19 19 20 21 23 23 24 24 23 23 24 25 25 25 25 25
16 16 16 14 11 9 9 8 7 6 6 6 8 8 9 9 7 3 3 5 5 4 4 2 3 4 2 2 1 0 2 2 1 5 6 7 8 10 11 13 13 15 16 15 13 13 14 15 15 14 14 13 13 12 13 14 16 18 19 19 19 20 21 22 22 22 22 21 21 21 21 22 23 24 24 25 25 26 27 27 28 28 29 29 28 28
15 17 14 11 11 11 8 7 7 6 6 7 9 9 9 9 7 4 4 5 6 5 4 2 4 4 0 1 2 2 1 1 0 1 3 5 6 7 8 9 10 12 12 12 11 12 14 15 16 16 15 14 14 13 12 12 14 16 18 19 20 21 21 22 22 21 21 21 23 24 26 26 27 28 27 27 27 28 29 29 30 31 32 32 32 31
13 13 12 11 11 10 8 8 7 6 7 8 9 10 10 9 8 6 5 5 6 4 3 3 5 5 2 2 2 3 2 3 2 2 2 3 4 4 5 7 9 10 9 10 10 11 13 14 15 16 16 15 15 14 13 12 12 13 16 17 19 20 21 21 21 20 20 24 26 28 28 27 28 28 28 29 30 30 31 31 32 33 33 34 33 33
10 8 10 12 11 10 8 8 8 7 8 9 10 10 9 7 7 6 4 4 6 5 3 4 8 8 4 5 5 4 3 3 3 3 3 3 4 4 4 5 6 7 8 9 11 13 15 16 16 16 17 17 15 14 13 12 12 12 13 15 17 20 20 20 20 20 23 27 26 26 27 27 28 28 29 30 31 32 32 32 33 33 33 33 34 34
11 8 11 14 12 10 8 8 8 8 9 10 10 9 8 7 6 6 5 5 8 8 5 4 8 6 6 6 7 8 4 2 1 2 3 3 3 4 5 5 6 7 7 9 11 12 15 16 18 18 19 19 17 15 14 13 13 12 11 12 15 18 20 21 21 22 25 27 25 25 25 25 26 27 28 30 31 32 32 32 32 33 34 34 33 34
13 12 13 14 10 8 8 9 9 8 10 10 8 7 6 6 7 7 6 7 11 7 4 3 7 6 6 6 7 9 9 4 2 1 1 0 0 0 1 1 2 3 4 6 7 9 11 14 16 17 19 20 20 18 17 16 16 14 12 11 12 16 18 21 23 24 25 24 25 26 24 22 23 24 25 27 29 30 31 31 31 32 33 34 34 34
12 14 16 15 11 9 10 9 8 9 10 8 7 7 5 5 7 7 8 11 10 6 5 6 6 9 6 6 7 8 9 6 4 4 4 4 4 5 6 6 6 7 8 10 10 9 9 10 12 14 16 19 21 21 20 19 17 15 14 12 11 14 16 20 24 23 22 24 26 25 23 22 23 22 22 23 25 27 29 31 32 33 34 35 36 36
10 12 15 14 12 10 10 8 8 9 10 7 7 8 6 4 6 7 9 11 8 7 10 9 7 9 6 6 6 7 7 6 6 6 5 5 4 5 6 7 9 11 13 14 14 13 13 12 12 13 14 17 19 19 19 19 17 16 15 13 12 13 15 19 24 22 20 24 26 22 20 23 22 19 17 19 22 24 26 29 32 35 36 35 35 38
8 11 11 11 11 10 8 8 9 10 10 9 8 8 6 5 6 7 10 10 8 8 12 10 9 9 4 7 5 5 7 6 6 5 4 4 3 2 4 6 9 12 15 17 17 17 16 15 13 13 14 15 17 18 18 17 18 16 15 14 13 14 15 18 22 22 19 22 23 18 18 21 19 16 14 16 18 21 24 28 31 35 34 30 31 37
9 11 10 11 12 10 9 8 9 10 11 10 9 7 7 7 7 8 10 10 8 9 13 11 9 9 6 6 5 5 7 7 6 5 3 3 1 1 3 5 8 12 14 16 17 17 17 17 15 14 13 15 16 17 18 18 17 16 15 14 12 14 16 17 19 19 18 21 19 14 15 18 16 14 13 14 16 19 23 27 30 31 28 25 28 33
13 12 11 12 12 10 8 7 6 8 10 10 9 9 10 9 9 10 10 10 9 8 11 9 10 11 8 5 7 8 9 9 8 8 6 4 2 1 3 4 7 10 12 12 13 13 14 14 14 13 12 13 15 17 19 19 18 16 14 13 12 13 15 16 18 18 18 19 15 11 11 15 16 15 13 13 17 20 24 27 28 27 25 23 25 27
13 12 11 11 11 10 8 7 7 7 8 11 10 12 14 10 8 10 10 9 9 8 5 7 9 10 4 7 9 10 10 10 9 8 7 5 3 1 1 3 5 7 9 10 11 11 10 9 9 9 9 9 10 13 15 17 17 14 12 11 11 12 14 15 17 18 17 17 14 12 12 14 16 16 13 12 15 18 22 25 25 22 22 22 23 22
11 10 11 10 9 11 9 8 9 7 8 11 12 15 15 10 7 8 9 8 10 8 6 8 9 8 7 9 10 12 11 10 9 8 7 5 4 2 1 2 3 5 7 10 11 10 9 8 8 8 9 8 8 8 10 12 14 14 13 14 13 13 13 14 18 20 19 18 16 14 13 15 16 16 14 13 14 17 18 20 20 18 18 21 22 24
11 8 12 13 10 11 12 11 9 6 8 10 10 13 15 14 11 9 7 8 9 6 5 9 9 6 9 12 13 14 12 11 10 8 7 5 4 3 2 3 4 7 10 11 11 11 9 8 7 8 8 8 8 8 8 10 12 14 16 18 17 16 15 16 20 23 23 23 21 18 16 15 15 16 16 15 13 15 17 19 20 19 18 22 26 28
13 8 11 15 13 13 14 13 9 7 9 8 8 11 13 13 12 9 7 7 8 6 5 10 6 4 11 16 16 15 13 12 10 9 8 7 6 6 6 8 8 10 12 12 11 10 9 8 8 9 8 8 7 8 9 11 13 15 17 19 19 19 18 19 22 25 27 28 26 25 21 17 17 18 17 17 16 16 20 23 24 22 21 24 28 31
13 8 11 15 14 15 15 12 11 10 8 7 10 12 11 11 10 8 7 4 5 7 7 10 7 9 13 14 16 16 12 12 12 10 11 10 10 11 11 10 10 10 11 11 9 9 9 9 9 10 10 9 8 8 9 10 13 16 18 19 20 21 21 22 23 26 30 29 28 29 27 22 22 21 17 18 21 22 25 26 26 26 26 27 29 31
14 9 11 16 14 16 17 12 11 12 9 8 10 11 12 12 10 9 7 4 7 7 6 10 10 12 13 11 15 15 12 13 15 13 14 14 13 14 13 13 12 11 10 9 8 9 9 9 10 11 11 12 11 11 11 11 14 16 18 19 21 22 23 24 26 29 32 32 30 31 30 25 25 26 22 21 23 23 25 25 27 28 29 30 31 32
16 11 11 16 14 14 16 12 11 12 13 12 10 11 12 11 9 9 7 5 7 7 7 11 12 13 13 13 17 17 16 17 17 16 16 16 15 15 14 13 13 12 11 10 11 12 13 14 15 16 16 16 16 16 16 16 17 18 19 20 22 23 25 26 29 31 32 32 31 32 31 29 29 29 26 25 25 24 24 25 27 30 31 33 34 33
18 14 11 14 15 14 13 12 11 10 12 14 12 11 11 11 10 10 10 10 9 7 7 9 10 10 8 14 20 22 24 23 20 19 19 18 17 16 15 14 14 13 13 13 15 16 18 20 20 21 21 21 21 21 21 21 22 22 23 24 25 26 27 28 30 32 32 31 32 32 32 32 31 29 27 27 26 26 26 27 30 32 33 35 36 35
18 17 13 12 15 16 13 12 14 11 10 11 12 11 10 10 10 10 11 13 13 10 7 8 9 5 8 15 19 22 25 25 23 21 20 19 18 17 16 17 17 16 17 18 19 21 22 23 24 24 23 23 23 23 24 24 25 26 27 28 29 29 29 30 31 32 32 32 32 31 31 31 30 30 29 28 28 29 29 30 31 33 35 37 38 38
16 16 14 11 13 14 11 14 18 17 15 12 10 11 10 10 11 11 11 12 13 13 10 9 9 4 12 17 20 22 24 25 24 22 20 18 17 17 18 19 19 19 21 22 24 25 25 26 27 25 24 23 23 23 24 24 25 27 28 29 29 29 29 30 29 29 28 29 29 29 28 27 27 28 28 27 27 29 31 33 33 35 36 38 41 41
17 14 12 10 11 12 13 17 17 16 17 15 11 11 10 10 12 12 11 9 11 12 11 11 9 5 14 18 20 23 25 25 24 23 20 18 18 19 19 20 21 23 25 26 27 28 29 30 29 28 27 25 24 24 24 25 25 26 27 28 29 29 29 29 29 28 26 25 26 26 26 26 25 25 26 26 26 27 29 32 34 35 37 39 42 43
16 13 11 8 8 10 13 14 13 13 14 11 11 13 12 11 12 13 11 9 11 11 10 11 8 8 16 18 20 23 24 24 25 23 22 21 21 21 21 22 24 26 28 29 31 31 31 31 29 28 26 25 24 23 24 25 26 27 27 27 28 29 29 30 30 30 29 28 27 27 28 28 27 26 25 25 26 26 27 28 30 31 33 35 37 41
14 13 15 11 7 7 8 7 9 13 12 9 10 15 15 13 14 15 12 11 12 12 12 13 10 6 12 16 19 21 21 22 24 23 23 23 22 22 23 25 27 30 31 33 32 31 29 27 26 24 23 22 22 22 22 24 26 27 28 29 29 30 30 31 32 32 32 32 31 30 30 31 30 30 28 27 27 27 28 29 30 31 32 33 34 36
15 14 17 15 9 8 7 6 9 13 13 13 14 15 15 13 13 11 8 8 10 10 12 16 13 5 6 11 14 16 18 20 22 23 24 24 23 25 27 29 31 32 32 31 29 26 25 23 23 22 21 21 21 21 22 22 23 25 27 28 29 30 31 32 33 33 34 34 33 33 32 32 33 33 33 32 31 31 31 31 33 34 36 37 37 37
18 17 19 18 14 8 3 5 12 14 12 11 13 14 14 15 15 11 8 9 11 11 13 15 12 8 7 9 12 15 18 21 23 24 25 25 27 29 31 32 31 30 28 26 24 24 23 23 23 22 21 21 21 21 22 22 23 24 25 27 28 29 31 32 33 33 34 35 35 34 34 33 33 34 34 34 34 34 34 34 34 36 38 40 41 41
16 15 19 22 18 11 7 8 13 13 10 10 11 13 15 17 17 14 13 12 10 12 14 11 10 12 11 10 15 17 19 22 24 26 27 28 30 30 30 28 26 25 24 24 23 23 23 23 23 22 22 22 22 22 22 23 24 25 26 28 29 30 31 32 33 34 35 36 36 36 36 35 34 34 34 34 33 33 33 34 34 35 36 38 41 43
13 11 16 19 17 17 17 15 14 13 13 13 14 15 16 18 19 20 21 19 15 17 18 12 11 14 10 11 19 22 21 23 26 27 28 29 28 26 24 22 22 22 22 22 22 22 22 22 22 22 22 22 23 23 24 25 26 28 29 30 31 32 33 33 34 34 35 36 37 37 37 37 36 36 35 35 35 34 34 33 33 33 34 35 38 40
12 10 14 14 11 13 15 14 15 14 14 15 17 18 17 18 21 23 25 24 23 25 26 21 19 18 14 17 26 29 26 27 28 28 26 25 23 21 21 21 21 21 20 21 21 21 21 21 22 22 22 23 24 24 26 27 28 30 31 32 33 34 34 34 35 35 36 37 37 38 38 38 38 38 38 38 38 37 37 36 35 34 34 34 35 37
13 10 13 13 10 10 12 12 13 13 14 17 17 17 18 21 23 25 26 27 28 29 30 28 27 24 22 27 32 31 30 29 28 25 23 22 21 21 21 21 20 19 19 19 20 20 21 22 22 23 24 24 26 26 28 29 30 32 33 34 35 36 36 37 38 39 39 40 41 41 42 42 42 42 43 43 43 43 42 42 41 40 39 37 36 36
14 12 13 13 10 10 11 12 11 13 16 19 21 21 22 24 24 25 25 27 28 27 26 25 24 21 22 28 29 27 25 24 22 22 22 23 23 22 21 20 19 19 19 19 20 21 22 23 24 26 27 28 29 30 31 33 34 36 37 38 39 40 40 41 42 43 43 44 45 46 47 47 47 48 49 49 49 49 48 48 47 46 44 42 40 39
15 14 13 12 10 9 11 11 10 11 13 15 19 22 22 22 23 23 24 26 27 26 22 18 18 19 22 26 24 22 20 19 20 22 22 23 23 22 21 20 19 20 20 21 22 23 24 26 28 29 30 32 33 35 36 38 39 41 42 44 44 44 44 45 45 46 47 48 49 49 50 51 51 51 52 52 53 52 51 51 50 49 47 46 44 43
17 13 10 11 10 8 9 9 8 9 10 10 14 18 16 17 19 21 22 23 23 23 22 20 21 23 25 25 22 21 20 20 21 22 23 23 22 21 21 20 20 21 22 23 25 26 27 29 30 32 34 36 38 40 41 43 45 46 47 47 48 48 48 48 49 49 50 50 51 51 52 52 53 53 52 51 51 51 49 49 48 47 47 46 45 44
17 13 11 11 10 7 7 7 6 8 10 12 15 15 12 12 15 16 16 18 19 20 21 23 24 24 24 22 22 23 23 23 23 23 23 24 23 22 22 22 23 24 25 26 28 29 31 32 34 36 38 39 41 44 46 48 48 48 48 48 48 49 49 49 49 50 49 50 50 50 50 49 49 50 49 49 48 47 46 45 45 43 43 43 43 43
16 14 13 12 10 8 8 10 8 6 8 13 15 12 11 11 12 13 15 17 20 21 21 22 23 23 23 23 25 26 25 24 24 24 25 26 25 24 24 24 25 26 27 29 31 32 34 36 38 40 41 44 47 48 48 48 47 47 47 47 47 47 46 46 46 46 46 46 45 44 44 43 40 40 41 42 44 44 43 42 41 40 40 40 40 41
18 15 14 13 13 12 12 14 14 11 11 15 17 16 15 14 13 14 14 15 19 21 20 22 23 24 25 26 26 26 24 23 22 23 26 27 24 23 24 26 27 28 30 32 34 35 37 39 41 44 46 48 49 48 47 46 46 46 46 45 44 43 43 42 41 40 40 40 40 39 39 37 35 34 36 37 39 40 41 40 39 39 39 39 39 40
22 18 15 15 15 15 14 14 14 12 10 12 14 13 12 11 12 13 14 16 20 20 19 22 25 25 25 25 26 24 22 21 17 17 23 25 22 22 25 27 28 31 33 34 36 37 40 42 45 47 47 47 46 45 45 45 45 44 43 42 41 40 39 38 36 35 36 37 38 37 37 36 35 36 37 37 37 37 37 38 38 38 39 39 39 40
25 22 19 17 15 15 15 14 13 11 8 10 12 10 9 9 9 9 11 15 19 19 19 22 24 24 23 25 25 22 20 17 12 12 21 25 24 25 28 29 31 33 34 36 39 42 44 45 45 45 44 44 43 42 42 41 42 41 40 39 38 37 37 36 35 35 35 37 38 37 36 37 37 37 36 36 36 36 35 36 36 36 35 35 35 36
24 22 21 19 17 16 17 16 16 12 11 14 14 11 9 8 7 7 8 10 14 16 16 18 21 22 23 24 23 21 20 18 15 17 24 27 28 29 31 32 34 36 38 41 44 45 44 43 43 42 42 40 39 38 38 38 38 38 37 36 36 35 35 35 36 37 37 38 38 38 38 38 38 36 36 37 38 38 36 36 35 33 30 29 30 33
21 22 21 20 20 18 17 17 17 13 13 17 17 13 12 9 8 10 11 12 15 17 16 17 20 21 23 23 22 21 22 23 22 23 27 30 31 32 33 36 39 41 43 44 44 43 42 41 41 40 38 36 35 35 35 35 35 35 34 34 35 35 35 36 37 37 37 37 36 36 36 36 36 36 37 39 40 39 37 34 31 29 29 29 30 33
19 20 19 20 20 17 17 18 17 13 15 19 17 15 15 11 10 14 17 18 21 22 21 21 22 21 21 22 22 22 24 26 27 28 30 31 33 35 38 41 43 44 43 42 40 39 38 38 38 36 34 33 34 34 34 33 33 33 33 33 33 34 35 37 37 36 35 34 34 34 35 34 35 36 37 38 38 37 34 31 29 28 28 29 30 33
19 19 18 21 21 17 15 16 13 11 16 19 16 14 15 14 15 17 20 22 24 24 23 23 21 21 21 22 23 25 27 28 30 31 33 34 37 40 42 43 43 41 38 37 36 35 35 36 35 34 33 34 34 34 33 32 32 32 32 32 33 35 37 37 36 35 33 31 31 33 33 33 33 34 34 34 34 33 31 30 28 27 28 29 32 35
18 19 16 17 19 18 16 14 14 15 16 15 11 11 14 17 19 20 20 22 24 24 24 23 22 23 24 24 26 28 29 31 33 35 37 40 41 43 43 41 38 36 34 34 33 33 34 34 34 34 34 34 34 33 32 32 31 31 32 33 35 36 37 35 33 31 30 28 29 30 30 32 32 31 30 31 29 28 29 29 28 28 30 33 35 36
18 22 20 15 15 18 18 16 17 21 20 16 15 17 19 21 22 22 22 24 25 25 25 25 25 26 26 27 29 31 33 36 38 40 42 43 42 41 39 36 34 33 32 32 33 33 34 34 35 35 34 34 33 33 32 31 30 32 34 35 35 34 32 29 27 25 24 25 27 28 28 29 29 28 29 30 29 28 28 27 27 30 33 34 35 36
23 26 24 18 17 20 23 23 25 24 22 22 23 24 24 24 24 25 24 24 26 27 28 28 28 28 30 32 34 36 38 40 42 42 42 41 39 37 35 32 31 31 31 32 32 33 34 34 34 33 33 33 33 32 31 31 31 33 35 34 31 29 27 25 23 21 20 22 24 26 27 28 30 31 31 30 30 29 28 27 29 32 33 34 35 35
27 26 23 21 20 18 19 23 28 28 25 26 27 27 27 26 25 26 27 26 28 30 31 31 32 33 35 37 39 40 41 41 41 40 38 36 35 33 31 30 30 30 31 32 33 33 34 33 32 31 31 31 31 31 31 32 32 33 32 29 26 24 24 24 24 24 24 25 25 26 28 29 30 31 30 28 28 28 28 28 30 31 31 31 32 31
24 26 24 23 23 20 18 21 23 23 23 26 27 26 26 27 28 29 30 30 31 33 34 35 37 38 39 40 41 40 39 38 37 35 33 32 31 29 29 29 30 30 31 32 32 32 32 30 29 29 29 29 29 30 32 32 32 30 26 24 23 24 24 24 25 25 24 24 23 24 25 26 27 27 27 25 24 26 28 29 28 27 26 26 25 26
24 24 23 23 23 22 24 25 24 23 24 27 28 27 28 30 31 32 33 34 35 36 37 38 38 39 40 39 38 36 35 34 32 30 29 28 28 27 28 28 29 30 31 31 31 30 29 28 27 28 28 29 29 30 31 30 28 25 22 21 24 25 24 23 22 20 19 19 19 20 20 21 23 25 27 28 28 27 27 25 21 19 19 20 23 26
27 22 20 23 22 18 20 23 24 24 22 21 24 28 31 32 34 35 35 36 36 36 37 38 38 37 37 35 33 32 31 30 28 26 26 26 26 27 28 28 29 30 30 29 29 28 27 27 27 27 28 28 29 30 28 25 22 21 21 23 25 25 22 20 18 16 15 15 15 14 15 17 19 19 18 18 19 18 16 14 13 14 17 21 24 27
29 24 20 21 20 16 16 21 24 26 23 21 24 30 33 33 33 34 35 36 36 36 36 36 35 34 32 30 29 29 28 26 25 24 25 25 26 27 28 28 29 29 29 28 28 26 26 26 26 26 27 27 26 26 24 21 20 21 22 24 25 23 20 17 14 13 12 12 13 13 14 16 17 17 14 11 9 7 8 10 13 15 16 19 22 24
Wind_Direction
212 211 213 216 219 211 209 218 232 251 238 232 236 236 245 238 220 209 214 219 207 216 238 246 271 275 287 328 349 357 10 329 258 255 253 257 263 263 264 263 264 264 261 260 259 258 259 258 257 258 263 266 268 269 266 263 260 258 259 262 264 263 258 252 246 244 243 243 244 246 249 250 249 249 248 247 247 248 248 248 247 246 245 244 242 240
212 215 221 219 215 207 209 215 217 226 229 232 233 239 241 228 214 184 183 198 189 204 224 242 283 272 286 340 352 42 10 20 232 236 239 242 248 252 257 259 260 261 259 259 260 258 257 258 259 261 266 271 273 277 277 273 267 261 259 260 263 264 264 262 257 251 248 247 247 248 249 249 249 248 249 249 249 250 252 253 254 254 253 252 250 250
217 223 224 219 219 214 206 198 194 202 219 230 229 236 236 218 203 171 158 174 174 193 229 258 277 263 149 64 257 246 286 332 13 205 220 231 243 250 252 253 254 259 261 263 266 263 258 258 258 258 260 266 270 271 275 277 272 264 259 258 260 261 263 264 263 259 255 252 248 247 246 246 248 249 250 249 249 249 251 252 253 254 255 255 254 254
219 222 221 221 214 200 192 191 192 201 214 222 225 228 227 212 204 192 169 171 175 193 246 262 263 247 152 92 302 290 277 284 285 248 214 220 238 262 267 264 264 266 267 264 260 254 252 253 253 254 253 255 259 261 265 274 276 268 261 257 257 259 261 262 264 264 258 252 249 250 250 249 251 255 256 256 254 253 253 254 255 257 259 260 260 260
221 223 208 201 186 178 193 202 201 217 217 214 222 228 228 221 217 205 184 184 198 214 240 250 252 233 162 83 55 30 323 299 304 289 279 261 247 257 265 267 270 267 258 249 243 237 236 237 238 242 245 246 247 250 254 263 273 275 265 258 256 255 256 258 260 259 253 251 252 254 252 248 247 250 255 256 255 255 256 258 260 262 263 264 264 265
229 228 192 179 175 182 201 210 211 224 224 216 216 224 233 233 222 210 200 212 228 221 184 218 252 214 145 86 74 69 37 349 342 301 288 287 267 257 255 252 256 257 255 251 249 247 243 239 235 231 233 237 238 241 243 246 257 269 272 267 265 261 258 257 257 254 251 252 255 255 253 252 251 251 253 254 255 255 256 258 260 261 261 262 264 264
223 216 192 182 191 204 215 224 222 223 229 222 205 207 224 223 218 213 208 231 244 233 168 211 264 223 151 92 88 87 75 89 119 115 156 39 5 293 304 286 284 292 304 299 286 274 263 255 249 240 234 231 228 228 230 231 239 253 265 271 273 271 265 259 256 255 254 255 256 255 255 257 254 251 252 254 255 255 256 258 258 259 259 259 259 259
217 207 200 199 209 220 223 225 218 218 229 219 191 199 209 210 215 208 212 236 248 247 225 221 251 249 215 110 102 97 89 121 151 125 116 100 84 72 57 48 33 16 6 354 343 328 307 287 274 263 252 242 233 227 224 224 228 239 252 262 269 273 271 263 260 259 256 255 253 251 250 250 248 248 253 258 259 258 260 261 261 261 259 257 255 254
205 202 205 209 215 217 216 220 218 217 226 224 205 205 199 197 209 207 220 236 239 246 247 221 211 250 231 136 123 109 107 139 141 119 114 102 88 72 47 33 23 11 3 354 345 338 329 318 302 284 270 258 248 239 232 228 228 235 247 260 272 280 278 270 267 267 263 259 259 258 258 258 258 259 261 264 266 267 268 269 268 264 260 257 257 254
190 189 190 195 207 217 222 230 222 210 222 234 223 211 211 212 207 210 226 235 228 238 253 229 211 247 224 141 143 132 128 135 122 112 112 97 80 61 27 13 14 5 357 351 343 338 332 325 315 300 283 270 259 248 240 233 232 238 247 260 278 285 283 276 273 276 273 266 268 271 268 269 273 273 262 256 262 269 272 274 271 265 262 264 264 259
211 205 203 203 215 229 228 223 211 203 214 222 216 216 222 215 208 217 230 239 233 236 251 237 211 243 241 130 130 165 163 154 138 141 145 133 125 9 7 5 7 359 352 346 340 336 331 328 323 313 298 281 267 253 241 231 230 235 241 254 271 277 280 281 279 283 280 273 279 288 276 270 272 268 255 250 259 265 265 267 268 269 276 284 279 270
227 227 229 227 229 226 215 211 206 208 214 212 214 223 220 213 218 225 224 227 236 244 249 223 193 233 250 126 128 165 170 168 158 157 165 177 207 294 340 349 352 349 345 340 334 331 328 330 329 324 316 293 274 260 246 233 226 225 232 247 264 273 279 283 284 285 284 284 301 312 285 268 260 254 255 260 262 262 262 262 266 274 283 285 280 275
219 223 229 233 229 211 198 204 209 209 210 209 213 222 227 227 225 233 228 223 241 250 221 182 194 227 215 120 145 166 165 169 168 166 172 178 192 219 296 322 339 340 337 330 328 327 325 331 340 344 346 326 296 277 260 243 228 221 229 250 271 282 284 286 285 286 287 294 308 309 284 268 258 252 257 268 270 269 268 268 270 276 278 275 273 271
201 207 219 219 210 198 191 206 216 207 205 212 218 225 234 236 228 237 236 229 243 241 183 175 209 210 147 135 166 177 176 178 175 177 175 171 177 181 243 299 327 323 320 322 321 322 320 328 348 1 6 359 341 319 292 264 244 234 238 252 266 273 276 280 281 282 284 284 288 290 276 263 261 258 256 260 270 275 274 272 273 274 271 271 273 272
205 201 197 192 196 196 189 200 210 204 210 219 225 233 241 243 243 247 248 251 256 245 178 187 216 205 164 170 184 185 186 187 183 186 188 186 193 189 216 248 271 287 298 306 306 307 309 315 333 348 353 350 344 333 316 293 272 258 252 254 258 262 267 273 276 279 280 277 276 272 261 259 271 282 283 279 276 275 273 270 269 267 266 271 276 275
220 218 189 188 198 197 193 205 221 231 231 226 226 235 241 241 243 251 266 272 267 263 216 196 198 149 161 178 188 186 183 187 190 195 201 203 204 205 213 231 254 277 286 288 287 287 290 298 311 319 323 323 320 312 304 299 293 282 271 266 263 263 265 269 274 278 279 282 285 276 270 283 297 300 301 292 278 268 265 265 266 266 267 272 276 276
222 219 199 201 202 203 212 229 240 238 231 226 230 234 237 237 231 239 258 246 239 260 230 198 176 138 153 177 186 181 176 187 197 203 210 212 216 222 229 240 256 269 272 272 273 273 278 292 308 313 313 310 304 296 289 288 289 286 280 275 273 270 268 269 272 275 277 283 285 278 279 293 295 291 288 277 270 266 264 266 269 271 275 276 275 273
225 213 208 210 208 217 228 237 236 230 224 228 235 230 229 234 227 234 253 221 225 252 228 220 216 176 172 182 180 180 184 196 204 210 216 221 227 234 243 253 262 266 267 274 281 283 286 295 307 314 314 310 306 298 288 283 281 278 275 274 273 271 271 270 270 275 280 281 281 279 284 289 286 285 285 276 269 265 267 271 273 275 277 276 274 271
228 217 208 208 210 220 224 224 225 222 220 223 227 222 222 231 227 227 243 239 238 250 243 245 240 218 212 190 173 185 199 203 211 218 223 230 236 243 252 259 264 267 270 280 287 292 298 301 306 310 310 309 306 300 293 286 281 276 273 271 270 269 270 270 271 276 279 277 276 279 284 285 283 283 285 281 272 264 264 268 270 273 274 275 276 275
223 220 214 205 210 216 211 216 223 217 219 222 221 218 219 233 238 229 237 249 253 258 261 256 248 240 215 173 176 198 209 210 217 224 230 238 243 251 260 265 270 273 279 287 292 298 304 307 310 310 308 306 303 299 294 288 283 278 275 272 271 270 269 268 270 273 273 272 273 276 280 282 281 279 279 280 274 264 261 262 264 269 271 274 277 277
217 223 222 198 203 216 212 214 218 209 210 217 222 224 218 225 236 232 234 242 250 260 265 259 257 232 156 172 198 213 215 217 222 227 234 242 250 260 268 272 277 281 288 294 299 304 306 308 310 308 306 303 300 297 293 287 282 278 273 271 269 267 266 266 266 268 269 270 271 273 276 279 278 276 276 279 276 267 263 261 262 266 270 274 276 276
208 216 221 201 200 216 218 216 216 210 207 210 222 228 221 222 231 239 240 234 240 256 259 262 270 215 170 196 219 221 220 222 225 231 238 246 256 267 272 276 283 289 295 299 303 305 307 307 308 306 303 299 293 290 285 280 277 272 269 268 267 267 267 268 268 269 271 273 273 274 276 277 278 277 277 278 276 270 267 266 265 266 270 273 275 276
205 203 211 207 201 208 216 219 219 217 215 216 221 223 220 226 235 247 259 242 233 247 254 262 273 207 185 205 220 226 228 228 230 236 243 251 262 269 275 283 290 295 298 301 303 305 305 305 304 302 299 295 290 284 278 274 270 267 266 267 268 269 270 271 272 273 275 277 278 278 278 278 279 279 279 278 276 272 270 270 269 269 271 274 275 276
203 195 193 189 188 206 224 227 224 225 222 220 226 226 219 223 230 239 252 249 243 247 245 253 256 193 194 210 223 231 234 235 238 242 248 257 264 270 280 288 292 295 298 301 303 303 302 301 299 297 294 291 287 281 275 271 268 267 268 269 270 271 272 274 275 276 277 278 279 280 280 280 280 279 279 279 278 276 273 271 272 274 275 277 279 278
197 196 198 196 181 192 214 224 222 223 217 204 216 225 223 224 231 238 244 245 251 252 240 249 266 222 200 213 224 232 239 243 247 251 255 260 266 273 280 285 288 292 296 299 300 299 298 297 295 293 292 290 287 283 278 273 270 270 271 272 273 274 274 275 276 278 279 280 281 282 282 282 282 281 281 280 279 279 276 275 275 276 277 277 278 279
202 203 205 213 222 217 215 213 202 201 200 202 216 226 228 227 227 233 241 237 242 244 234 247 267 257 202 212 220 231 243 249 253 255 257 261 266 272 278 282 286 289 292 293 293 293 293 294 294 295 295 294 292 290 286 282 278 276 275 275 276 276 277 278 279 281 283 285 286 287 287 287 287 287 286 285 283 282 279 278 277 277 278 277 277 278
210 211 210 218 234 247 244 187 179 178 184 203 218 222 226 231 229 227 232 239 247 253 250 252 252 241 243 234 221 232 245 250 254 256 258 262 268 274 279 283 286 287 288 289 290 292 293 293 294 294 292 291 289 288 287 285 283 281 280 280 279 279 280 281 282 284 286 288 289 291 292 292 291 291 291 290 289 287 284 281 279 277 277 277 276 276
210 215 216 219 226 237 240 215 200 197 200 207 215 222 230 237 239 236 236 242 250 258 262 264 242 239 253 229 217 234 247 249 254 257 262 269 274 278 281 282 283 285 286 289 290 292 293 292 292 291 288 286 283 282 282 282 282 281 281 281 282 283 284 284 285 286 286 287 288 289 290 291 291 291 291 291 290 289 288 285 282 279 276 275 274 273
204 208 217 217 222 232 238 240 237 230 226 223 224 230 237 242 246 246 246 247 249 252 258 265 253 250 251 224 231 248 252 251 256 261 266 272 275 277 279 280 284 287 288 290 291 291 292 291 290 289 287 284 282 281 281 281 282 282 282 282 283 285 286 287 288 288 288 288 287 287 287 288 288 289 288 288 288 288 288 287 285 282 279 276 274 273
206 209 216 210 210 225 231 237 240 238 239 241 241 241 242 246 249 251 251 250 249 251 255 260 261 257 248 242 253 263 265 265 269 271 272 274 274 277 281 285 289 292 292 293 294 294 293 292 291 290 289 288 286 285 284 284 285 287 288 289 289 289 289 290 291 291 292 292 291 290 290 289 288 288 287 287 287 286 287 287 287 286 284 281 279 277
209 215 216 206 209 224 228 236 245 248 252 253 251 248 247 249 249 250 252 252 251 254 258 259 262 261 256 258 265 270 272 273 275 275 275 277 279 284 288 290 293 294 295 297 298 298 297 297 296 295 294 294 293 293 292 292 293 294 295 296 296 297 297 297 297 297 297 297 297 296 295 293 293 292 291 290 289 289 289 288 288 287 286 284 282 280
210 215 210 205 220 230 225 238 253 260 264 262 255 252 250 251 252 251 254 256 255 258 260 260 263 262 258 263 269 271 271 270 270 273 277 280 285 288 289 292 295 296 299 301 301 301 300 300 300 299 299 299 298 299 299 300 300 301 301 301 301 301 301 301 301 301 300 300 299 298 298 297 296 295 294 293 293 292 291 291 290 289 287 285 283 281
206 211 206 205 224 228 222 239 260 267 270 264 255 254 253 250 251 251 254 258 258 257 254 252 253 253 255 264 270 268 266 268 272 276 279 282 285 287 289 293 296 297 300 300 300 299 299 299 300 300 300 301 301 302 303 304 305 305 305 304 304 303 303 302 302 301 300 299 298 297 296 295 295 294 293 292 292 291 291 290 289 288 287 285 283 281
207 209 203 204 221 225 217 235 262 262 255 248 251 257 256 247 244 244 249 255 258 255 251 247 250 255 261 266 268 269 273 277 279 281 283 284 286 289 292 295 297 298 299 299 298 298 298 299 300 300 302 303 304 305 306 307 307 306 306 305 304 304 303 302 301 299 298 297 296 295 294 293 292 290 290 290 289 289 289 288 287 286 285 283 282 280
212 209 203 208 224 226 204 212 247 251 238 242 255 260 252 240 236 235 240 246 247 248 248 250 253 257 260 263 268 276 281 283 284 285 286 288 290 292 295 296 298 299 299 298 298 298 298 299 300 301 303 303 304 305 305 305 304 304 303 302 301 301 300 299 298 297 296 295 294 293 292 291 289 288 288 288 288 289 289 288 287 286 284 283 281 280
213 209 210 214 218 210 197 203 220 244 244 245 254 256 243 235 232 232 239 244 244 244 246 249 252 254 257 262 269 275 278 280 284 286 286 287 289 292 294 295 296 296 296 297 298 298 300 301 301 302 302 303 303 303 302 302 302 301 300 299 298 298 297 297 296 295 295 294 293 291 290 290 291 291 290 290 290 290 290 289 288 287 285 283 281 279
218 212 215 221 217 215 227 229 230 254 269 253 250 255 251 244 236 233 238 243 243 241 240 243 248 252 257 262 265 269 273 278 284 287 286 285 286 289 293 294 294 294 295 296 297 298 299 300 300 300 301 301 301 302 302 301 301 300 299 299 299 299 298 297 296 296 296 295 294 292 290 290 291 290 290 291 291 291 290 288 287 286 284 283 281 279
226 220 217 224 224 224 239 245 238 251 260 237 234 249 252 244 238 236 242 248 246 241 237 240 248 253 257 261 264 268 273 276 282 283 278 281 290 294 294 292 291 293 293 294 294 295 295 296 297 298 299 300 301 301 302 302 301 300 300 300 301 300 299 298 297 295 295 294 293 292 290 289 288 287 289 289 288 289 289 288 287 285 283 282 280 280
229 224 217 222 225 218 221 233 240 246 239 218 225 244 248 239 232 236 249 252 248 246 243 244 250 255 258 261 266 270 272 273 273 262 265 278 293 295 290 289 288 288 289 289 291 292 294 296 297 298 299 300 302 302 302 301 300 299 300 301 301 300 299 298 296 294 293 292 290 289 289 288 287 287 289 288 287 288 288 288 287 286 284 283 282 281
222 218 212 215 219 214 214 228 241 244 237 234 240 249 247 230 207 217 242 241 236 243 247 247 251 256 258 261 266 268 267 265 259 257 266 279 287 286 285 287 287 287 289 291 293 296 298 299 300 302 303 304 305 305 304 303 301 301 301 300 299 298 297 295 293 291 290 289 287 287 287 287 288 288 290 291 291 291 291 290 290 287 285 284 284 283
208 208 208 212 218 218 217 227 241 246 243 245 247 248 247 234 210 221 235 233 237 248 254 254 256 258 260 263 266 266 266 269 272 273 276 280 282 282 284 287 289 292 295 297 300 301 301 302 302 303 305 307 307 306 304 303 301 300 300 299 298 297 295 292 291 290 289 287 285 284 284 286 288 290 292 293 294 293 293 292 290 286 286 287 287 287
196 200 205 211 217 221 221 229 243 247 244 247 248 246 246 234 216 228 239 244 252 261 265 266 267 266 266 269 271 271 273 278 282 282 281 281 282 285 288 291 295 298 300 300 302 302 302 303 302 304 307 309 309 307 305 302 301 299 299 299 298 298 296 295 294 293 290 286 283 283 284 285 286 288 290 291 292 292 292 290 287 286 289 290 289 289
205 205 208 212 214 216 222 230 239 238 241 248 249 244 241 234 231 241 250 255 261 265 268 271 272 271 272 275 277 278 279 281 282 282 281 283 285 289 294 297 299 300 300 301 303 304 305 305 306 308 311 312 311 309 306 303 302 301 300 300 300 300 301 301 299 296 290 285 281 282 284 286 286 287 289 290 291 291 289 287 286 287 288 288 289 291
213 213 215 216 215 215 218 223 228 232 241 251 251 244 246 249 253 258 260 261 264 267 269 271 272 274 277 278 278 279 280 279 280 281 284 287 291 295 298 299 300 300 302 303 305 306 307 307 308 311 312 312 311 309 306 304 302 301 302 303 304 305 306 305 302 297 290 283 280 281 284 286 286 286 287 289 289 288 286 287 287 286 287 289 292 295
213 217 219 216 217 223 223 223 232 241 250 258 260 260 262 264 267 266 263 263 266 269 270 270 272 276 279 278 278 279 278 280 282 286 290 294 297 299 300 300 302 304 305 306 307 307 307 307 308 310 310 311 310 308 305 303 302 302 305 308 309 310 310 308 304 297 289 282 280 282 283 284 285 286 288 288 286 285 286 288 287 286 289 293 297 298
226 230 231 227 228 233 235 237 242 247 254 260 262 265 267 266 266 266 263 263 265 268 272 274 275 278 279 278 279 279 280 284 288 292 295 298 299 299 300 304 306 307 307 307 306 306 306 305 306 307 308 309 309 307 304 302 303 306 309 310 310 310 311 312 310 306 299 293 289 288 287 287 288 289 289 287 286 286 287 286 286 289 295 299 300 301
234 236 233 228 230 235 240 244 247 248 253 259 261 264 265 264 264 264 264 264 265 268 273 275 276 277 278 278 279 281 285 289 292 295 297 297 297 299 303 306 306 305 305 305 305 304 304 303 304 305 306 307 306 304 303 304 308 311 310 308 306 308 311 314 314 310 306 302 299 297 295 293 292 291 290 288 286 284 283 284 288 294 299 301 301 302
235 235 228 225 229 232 234 239 245 248 253 256 258 260 262 261 261 261 263 265 266 268 271 274 276 277 278 279 283 286 290 292 293 294 295 295 297 301 303 303 303 304 304 304 303 303 302 301 302 303 303 303 302 302 304 307 311 313 310 307 310 314 314 312 309 306 305 305 304 302 299 296 294 290 287 284 282 283 284 287 292 296 298 300 302 303
232 235 230 227 227 230 235 240 246 252 256 259 260 259 257 258 260 261 262 264 266 269 272 274 276 278 280 284 288 290 291 291 292 292 293 295 298 300 300 300 301 303 303 303 302 302 301 301 301 300 299 300 301 303 307 311 313 313 311 311 316 317 313 309 309 309 310 310 309 310 310 308 303 294 285 279 277 281 287 290 294 298 299 299 300 301
237 238 235 232 229 229 236 244 248 251 252 256 259 256 254 255 259 261 264 267 270 271 273 276 279 282 285 289 290 289 288 289 290 291 293 294 296 296 296 298 300 301 302 302 302 302 302 301 299 298 299 302 305 307 310 312 313 311 311 314 317 314 311 311 311 311 312 316 321 331 340 340 337 330 316 299 289 286 289 294 297 297 297 298 300 301
243 239 234 233 231 229 234 244 250 251 245 241 244 250 254 258 260 263 266 269 271 273 275 279 283 286 288 288 286 285 285 286 288 290 290 291 292 293 294 297 299 300 301 301 301 301 300 299 299 300 303 306 308 309 310 310 308 309 311 314 314 310 308 310 307 304 310 320 328 335 339 340 344 349 352 350 342 321 300 297 299 302 306 310 311 311
Height
3159 3161 3161 3162 3163 3164 3165 3165 3165 3165 3166 3166 3167 3167 3167 3166 3166 3167 3167 3167 3167 3167 3168 3168 3168 3168 3168 3169 3168 3167 3166 3165 3164 3164 3165 3166 3167 3166 3166 3167 3168 3170 3171 3172 3174 3175 3175 3176 3176 3176 3176 3176 3176 3177 3177 3177 3177 3177 3177 3178 3178 3178 3178 3179 3179 3180 3181 3183 3184 3184 3185 3185 3186 3185 3185 3185 3185 3185 3185 3185 3185 3185 3184 3184 3184 3184
3158 3159 3160 3161 3162 3162 3163 3163 3163 3164 3164 3165 3166 3166 3165 3165 3166 3166 3166 3166 3166 3167 3167 3167 3167 3167 3168 3167 3166 3165 3165 3164 3163 3163 3164 3165 3165 3165 3165 3166 3167 3168 3169 3171 3172 3173 3174 3174 3175 3175 3175 3175 3175 3176 3176 3176 3176 3176 3176 3177 3177 3177 3177 3177 3178 3179 3180 3182 3182 3183 3183 3183 3183 3182 3182 3182 3183 3183 3183 3183 3183 3183 3183 3182 3182 3182
3157 3158 3159 3160 3160 3160 3161 3162 3162 3163 3164 3164 3164 3164 3163 3163 3164 3165 3165 3165 3166 3166 3166 3166 3166 3166 3167 3166 3164 3164 3164 3164 3163 3164 3164 3164 3165 3165 3165 3166 3167 3168 3169 3170 3171 3172 3173 3173 3173 3174 3174 3174 3174 3174 3175 3174 3174 3174 3174 3175 3175 3175 3175 3176 3176 3177 3179 3180 3179 3179 3179 3180 3180 3180 3180 3180 3181 3181 3181 3181 3181 3180 3180 3180 3180 3180
3156 3156 3157 3158 3158 3159 3160 3161 3161 3162 3162 3163 3163 3162 3162 3162 3163 3164 3164 3164 3165 3165 3165 3166 3166 3166 3166 3165 3164 3163 3163 3163 3163 3164 3164 3164 3164 3164 3165 3165 3166 3167 3168 3169 3169 3170 3170 3170 3171 3171 3172 3172 3172 3173 3173 3173 3173 3172 3172 3173 3173 3173 3173 3174 3174 3175 3176 3175 3175 3176 3177 3179 3179 3179 3179 3180 3180 3179 3179 3179 3179 3178 3178 3178 3178 3178
3155 3154 3155 3156 3157 3158 3160 3160 3160 3161 3161 3161 3161 3161 3160 3161 3162 3163 3163 3164 3164 3164 3164 3165 3164 3164 3165 3165 3164 3163 3163 3163 3163 3163 3163 3163 3163 3163 3164 3164 3165 3165 3166 3166 3167 3167 3167 3167 3167 3168 3169 3170 3170 3171 3171 3171 3171 3170 3170 3171 3171 3171 3171 3171 3171 3172 3172 3171 3173 3174 3175 3176 3176 3176 3176 3177 3177 3177 3176 3176 3176 3176 3176 3176 3175 3176
3154 3153 3154 3155 3156 3157 3159 3159 3160 3160 3159 3159 3159 3159 3160 3160 3161 3162 3162 3163 3162 3162 3162 3163 3161 3162 3165 3165 3164 3164 3163 3162 3162 3162 3163 3162 3162 3163 3163 3163 3164 3164 3164 3165 3165 3165 3165 3165 3165 3165 3165 3166 3168 3168 3169 3169 3169 3169 3168 3168 3168 3168 3168 3168 3167 3168 3169 3169 3170 3170 3171 3172 3172 3172 3173 3173 3173 3173 3172 3172 3172 3172 3171 3171 3171 3172
3152 3152 3153 3154 3155 3156 3157 3158 3158 3158 3158 3157 3157 3158 3159 3159 3160 3160 3161 3161 3160 3160 3161 3162 3160 3160 3163 3164 3163 3163 3163 3162 3162 3162 3162 3162 3162 3162 3162 3163 3163 3164 3164 3164 3164 3164 3164 3164 3163 3163 3163 3163 3164 3164 3165 3166 3166 3166 3166 3166 3166 3165 3166 3164 3163 3165 3166 3166 3166 3165 3167 3169 3169 3169 3169 3169 3169 3169 3168 3168 3168 3167 3167 3167 3167 3168
3149 3151 3152 3153 3154 3155 3156 3156 3156 3156 3156 3156 3156 3157 3157 3158 3158 3159 3159 3159 3158 3159 3160 3160 3160 3159 3160 3163 3162 3163 3163 3162 3162 3162 3162 3162 3162 3162 3163 3163 3163 3163 3164 3164 3163 3163 3163 3162 3162 3162 3162 3162 3161 3161 3162 3162 3163 3164 3164 3164 3164 3163 3163 3160 3158 3160 3163 3161 3159 3161 3164 3165 3165 3167 3167 3167 3166 3166 3165 3165 3164 3163 3163 3162 3162 3163
3148 3150 3150 3152 3153 3154 3154 3154 3154 3155 3155 3154 3154 3155 3156 3157 3157 3157 3158 3157 3157 3158 3156 3157 3159 3156 3157 3161 3161 3162 3162 3161 3161 3161 3161 3162 3161 3162 3162 3162 3163 3163 3163 3163 3163 3162 3162 3162 3161 3161 3161 3161 3160 3160 3160 3161 3162 3162 3162 3162 3162 3161 3161 3158 3154 3155 3159 3156 3154 3158 3161 3161 3162 3164 3166 3165 3164 3164 3163 3162 3161 3159 3158 3158 3160 3159
3146 3147 3149 3150 3151 3152 3152 3152 3152 3153 3153 3153 3153 3154 3155 3155 3156 3156 3156 3155 3156 3157 3154 3154 3157 3154 3154 3160 3161 3160 3161 3161 3161 3161 3161 3161 3161 3161 3162 3162 3162 3162 3162 3162 3162 3161 3161 3161 3160 3160 3159 3159 3159 3159 3159 3159 3160 3160 3160 3160 3160 3159 3158 3156 3152 3152 3155 3153 3151 3156 3158 3157 3159 3160 3160 3160 3159 3159 3159 3158 3156 3153 3153 3157 3158 3155
3145 3146 3147 3148 3149 3149 3150 3150 3150 3151 3151 3152 3152 3154 3154 3154 3155 3155 3155 3155 3155 3154 3151 3151 3155 3154 3154 3158 3160 3159 3159 3159 3160 3160 3160 3160 3160 3160 3161 3161 3161 3161 3161 3161 3161 3160 3160 3159 3159 3158 3158 3157 3157 3156 3156 3157 3157 3158 3158 3158 3158 3157 3155 3154 3152 3151 3151 3149 3149 3153 3153 3153 3154 3155 3155 3155 3154 3154 3154 3152 3150 3149 3153 3156 3155 3153
3144 3145 3145 3146 3146 3147 3148 3149 3149 3149 3149 3150 3151 3152 3152 3153 3154 3153 3153 3154 3152 3149 3149 3150 3154 3154 3153 3156 3158 3157 3157 3158 3159 3159 3159 3159 3159 3159 3159 3160 3160 3160 3160 3160 3160 3159 3159 3158 3157 3157 3156 3156 3155 3155 3154 3154 3154 3155 3155 3155 3155 3154 3153 3152 3150 3149 3148 3147 3147 3149 3149 3149 3150 3150 3151 3151 3150 3150 3148 3147 3146 3147 3150 3151 3150 3149
3143 3144 3144 3144 3145 3146 3147 3147 3147 3147 3148 3148 3149 3150 3149 3150 3152 3151 3150 3150 3148 3146 3148 3151 3153 3153 3153 3155 3156 3155 3156 3157 3157 3158 3158 3158 3158 3158 3159 3159 3159 3159 3159 3159 3158 3158 3157 3157 3156 3156 3155 3155 3154 3154 3153 3153 3153 3153 3154 3153 3153 3152 3151 3149 3147 3146 3145 3146 3146 3146 3145 3145 3145 3145 3146 3146 3146 3146 3145 3144 3144 3145 3146 3145 3145 3145
3140 3142 3142 3142 3143 3144 3144 3145 3146 3146 3146 3147 3147 3148 3147 3146 3150 3149 3146 3145 3145 3146 3148 3150 3150 3151 3153 3156 3155 3154 3155 3156 3156 3157 3157 3157 3157 3157 3157 3158 3158 3157 3157 3157 3157 3156 3156 3156 3155 3155 3155 3154 3154 3154 3154 3153 3153 3153 3152 3151 3151 3150 3148 3147 3145 3142 3141 3142 3143 3144 3143 3142 3141 3141 3140 3141 3141 3141 3141 3141 3141 3142 3141 3141 3141 3140
3137 3138 3139 3140 3141 3142 3142 3143 3143 3144 3145 3145 3145 3145 3145 3144 3146 3145 3143 3142 3143 3145 3148 3149 3148 3149 3152 3154 3153 3153 3154 3154 3155 3155 3155 3156 3156 3156 3156 3156 3156 3156 3156 3156 3155 3155 3155 3155 3154 3154 3154 3154 3153 3153 3153 3153 3152 3152 3151 3150 3149 3148 3147 3145 3143 3140 3138 3138 3139 3140 3141 3141 3141 3141 3139 3139 3138 3138 3139 3139 3138 3138 3137 3137 3136 3135
3135 3135 3136 3138 3139 3140 3140 3141 3142 3142 3143 3143 3143 3144 3143 3143 3144 3144 3143 3143 3143 3145 3146 3146 3147 3148 3149 3150 3151 3152 3153 3153 3154 3154 3154 3154 3154 3155 3155 3155 3155 3154 3154 3154 3154 3154 3154 3153 3153 3153 3153 3152 3152 3152 3152 3151 3151 3150 3149 3148 3147 3146 3145 3144 3142 3139 3135 3134 3135 3136 3137 3140 3140 3140 3139 3139 3138 3137 3136 3135 3134 3134 3134 3133 3132 3131
3134 3134 3135 3137 3137 3138 3139 3139 3140 3140 3141 3141 3142 3142 3141 3142 3144 3144 3143 3144 3144 3144 3142 3143 3146 3148 3149 3150 3151 3151 3152 3152 3152 3152 3152 3153 3153 3153 3153 3153 3153 3153 3153 3152 3152 3152 3152 3152 3152 3151 3151 3151 3151 3150 3150 3150 3149 3148 3147 3146 3145 3144 3143 3141 3139 3137 3134 3133 3132 3131 3133 3136 3135 3134 3134 3134 3134 3134 3132 3132 3131 3131 3131 3130 3128 3127
3132 3133 3134 3135 3136 3136 3137 3138 3138 3138 3139 3140 3140 3140 3141 3142 3143 3143 3142 3142 3143 3142 3140 3141 3144 3146 3147 3148 3149 3151 3151 3150 3150 3150 3151 3151 3151 3151 3151 3151 3151 3151 3151 3151 3151 3151 3150 3150 3150 3150 3150 3149 3149 3149 3148 3148 3147 3146 3145 3144 3143 3141 3140 3138 3136 3134 3132 3131 3130 3127 3127 3129 3130 3130 3130 3129 3129 3129 3129 3129 3128 3127 3127 3125 3124 3123
3130 3131 3132 3133 3134 3134 3135 3136 3137 3137 3137 3138 3138 3139 3140 3140 3141 3142 3142 3141 3141 3140 3138 3138 3140 3142 3143 3145 3147 3149 3148 3148 3148 3148 3148 3149 3149 3149 3149 3149 3149 3149 3149 3149 3149 3149 3148 3148 3148 3148 3148 3147 3147 3146 3146 3145 3145 3144 3143 3142 3140 3139 3138 3136 3133 3132 3131 3130 3127 3125 3122 3122 3123 3125 3125 3125 3125 3125 3125 3125 3124 3122 3121 3119 3119 3119
3128 3129 3130 3131 3132 3132 3134 3135 3135 3136 3136 3136 3137 3138 3139 3139 3139 3141 3141 3140 3139 3138 3137 3137 3137 3139 3140 3142 3143 3144 3144 3145 3146 3145 3146 3146 3146 3146 3146 3146 3146 3147 3147 3147 3147 3146 3146 3146 3145 3145 3145 3144 3144 3144 3143 3143 3142 3141 3140 3139 3137 3136 3135 3133 3131 3129 3128 3127 3126 3123 3120 3119 3119 3120 3120 3120 3120 3121 3121 3120 3119 3118 3116 3115 3115 3115
3126 3127 3127 3129 3130 3131 3132 3132 3132 3134 3134 3135 3136 3137 3137 3138 3138 3139 3139 3138 3138 3137 3137 3136 3136 3137 3139 3140 3140 3141 3141 3142 3143 3143 3143 3143 3143 3144 3143 3143 3143 3144 3144 3144 3144 3144 3143 3143 3142 3142 3142 3141 3141 3141 3140 3139 3138 3137 3136 3135 3134 3132 3131 3130 3128 3126 3125 3124 3123 3121 3119 3117 3116 3117 3117 3117 3117 3116 3116 3116 3115 3114 3112 3111 3110 3110
3124 3125 3125 3127 3128 3129 3129 3128 3129 3131 3132 3133 3135 3135 3135 3136 3137 3136 3135 3135 3137 3136 3135 3135 3135 3135 3137 3138 3138 3139 3139 3140 3140 3140 3140 3141 3141 3141 3141 3141 3141 3141 3141 3141 3141 3141 3140 3140 3139 3139 3139 3138 3138 3137 3137 3136 3135 3134 3133 3131 3130 3128 3127 3126 3125 3123 3122 3121 3119 3118 3117 3116 3114 3114 3113 3113 3113 3113 3112 3112 3111 3110 3109 3108 3106 3106
3121 3123 3124 3126 3126 3126 3126 3126 3128 3129 3130 3131 3132 3132 3133 3134 3135 3134 3133 3133 3135 3134 3134 3135 3135 3134 3135 3136 3136 3136 3137 3138 3138 3138 3138 3138 3138 3138 3138 3138 3138 3138 3138 3138 3137 3137 3137 3137 3136 3136 3135 3135 3134 3134 3133 3132 3131 3130 3129 3128 3126 3125 3124 3122 3121 3120 3119 3118 3116 3115 3114 3114 3113 3112 3111 3110 3109 3109 3108 3108 3107 3107 3106 3105 3103 3103
3120 3121 3123 3124 3125 3124 3124 3125 3126 3127 3128 3130 3129 3129 3131 3132 3132 3132 3132 3132 3133 3133 3133 3134 3133 3132 3133 3134 3134 3135 3135 3136 3136 3136 3136 3136 3136 3136 3136 3136 3135 3135 3135 3134 3134 3134 3134 3133 3133 3132 3132 3131 3131 3130 3129 3128 3127 3126 3125 3124 3123 3121 3120 3119 3117 3116 3115 3114 3113 3112 3110 3110 3109 3108 3108 3107 3106 3105 3104 3104 3103 3102 3102 3101 3100 3099
3118 3119 3120 3122 3123 3123 3124 3124 3124 3125 3126 3128 3127 3127 3128 3129 3129 3130 3131 3132 3131 3131 3132 3130 3128 3129 3132 3133 3133 3133 3134 3134 3134 3134 3134 3134 3134 3134 3134 3134 3133 3133 3132 3132 3131 3131 3130 3130 3129 3129 3128 3127 3127 3126 3125 3124 3123 3122 3121 3120 3119 3117 3116 3115 3113 3112 3111 3110 3109 3108 3107 3105 3104 3104 3103 3103 3102 3102 3101 3100 3099 3098 3098 3097 3096 3095
3115 3116 3117 3118 3118 3118 3119 3120 3120 3121 3123 3124 3124 3124 3126 3126 3127 3129 3130 3130 3129 3129 3129 3128 3127 3129 3130 3131 3132 3132 3132 3132 3132 3132 3132 3132 3132 3132 3132 3132 3131 3131 3130 3130 3129 3128 3128 3127 3126 3125 3124 3124 3123 3122 3121 3121 3120 3119 3117 3116 3115 3114 3112 3111 3109 3108 3106 3105 3104 3103 3103 3102 3100 3099 3098 3098 3098 3097 3096 3096 3095 3094 3093 3092 3091 3091
3112 3113 3114 3115 3115 3114 3115 3115 3116 3118 3121 3122 3122 3123 3124 3124 3125 3127 3128 3128 3127 3127 3126 3126 3128 3129 3128 3128 3130 3130 3130 3130 3129 3129 3129 3129 3130 3130 3129 3129 3129 3128 3128 3127 3126 3125 3124 3124 3123 3122 3121 3120 3120 3119 3118 3117 3116 3115 3114 3112 3111 3110 3108 3107 3106 3104 3103 3101 3100 3099 3098 3098 3097 3095 3094 3093 3093 3092 3091 3091 3090 3089 3088 3087 3086 3085
3111 3111 3112 3113 3114 3113 3113 3114 3115 3117 3119 3120 3121 3121 3121 3122 3122 3124 3125 3126 3126 3125 3123 3124 3126 3128 3127 3127 3126 3127 3127 3127 3127 3127 3127 3127 3127 3127 3127 3126 3126 3125 3124 3124 3123 3122 3121 3120 3120 3119 3118 3117 3117 3116 3115 3114 3113 3111 3110 3109 3107 3106 3104 3103 3102 3101 3099 3098 3096 3095 3094 3093 3092 3091 3090 3089 3088 3087 3086 3085 3085 3084 3083 3082 3081 3081
3109 3110 3109 3111 3112 3112 3112 3113 3114 3115 3116 3117 3118 3119 3119 3119 3120 3121 3122 3123 3123 3122 3122 3123 3123 3125 3127 3125 3123 3124 3125 3125 3124 3125 3125 3124 3124 3124 3123 3123 3123 3122 3121 3120 3120 3119 3118 3117 3117 3116 3115 3114 3113 3112 3111 3110 3109 3108 3106 3105 3103 3102 3101 3100 3098 3097 3095 3094 3092 3091 3090 3089 3088 3087 3086 3084 3083 3082 3081 3080 3080 3079 3078 3077 3076 3075
3107 3107 3107 3109 3110 3110 3111 3111 3112 3113 3114 3114 3115 3116 3117 3117 3118 3118 3119 3120 3120 3118 3119 3121 3120 3121 3123 3122 3120 3121 3122 3121 3121 3121 3121 3121 3120 3120 3120 3120 3119 3119 3118 3117 3117 3116 3115 3114 3114 3113 3112 3111 3110 3109 3108 3107 3105 3104 3102 3101 3100 3098 3097 3096 3094 3093 3091 3089 3088 3086 3085 3084 3083 3081 3080 3079 3078 3077 3076 3075 3074 3074 3073 3072 3071 3070
3105 3105 3105 3107 3109 3109 3109 3109 3110 3111 3111 3112 3112 3113 3114 3114 3115 3115 3115 3116 3116 3115 3116 3117 3117 3117 3118 3117 3116 3117 3117 3117 3117 3117 3117 3117 3117 3117 3117 3116 3116 3116 3115 3114 3114 3113 3112 3111 3110 3109 3108 3107 3106 3105 3104 3103 3102 3100 3099 3097 3096 3094 3093 3091 3090 3088 3086 3085 3083 3081 3080 3078 3077 3075 3074 3073 3071 3071 3070 3069 3068 3067 3067 3066 3065 3064
3102 3103 3103 3105 3107 3107 3107 3108 3108 3109 3109 3108 3108 3109 3110 3111 3111 3111 3111 3112 3112 3113 3114 3114 3114 3114 3112 3112 3113 3114 3114 3113 3113 3113 3113 3113 3113 3113 3113 3113 3113 3113 3112 3111 3111 3110 3109 3108 3107 3106 3105 3104 3102 3101 3100 3099 3097 3096 3094 3093 3091 3090 3088 3087 3085 3083 3081 3080 3078 3076 3074 3072 3070 3069 3067 3065 3064 3063 3062 3061 3061 3060 3059 3059 3058 3058
3099 3100 3102 3103 3105 3105 3104 3105 3107 3107 3106 3104 3102 3105 3107 3107 3108 3108 3108 3108 3108 3109 3111 3111 3111 3110 3108 3108 3110 3110 3110 3111 3111 3110 3110 3110 3110 3110 3110 3110 3110 3110 3109 3109 3108 3107 3106 3105 3103 3102 3101 3100 3098 3097 3096 3094 3092 3090 3089 3087 3085 3084 3082 3081 3079 3077 3076 3074 3072 3070 3068 3066 3064 3062 3060 3058 3057 3055 3055 3054 3053 3052 3051 3051 3050 3050
3097 3099 3100 3101 3102 3102 3102 3103 3105 3105 3102 3098 3098 3101 3103 3104 3104 3105 3105 3105 3105 3106 3107 3107 3106 3106 3106 3106 3107 3107 3107 3108 3107 3107 3107 3107 3107 3107 3107 3108 3107 3107 3106 3105 3104 3103 3102 3101 3100 3098 3097 3095 3093 3092 3090 3088 3087 3085 3083 3081 3079 3077 3076 3074 3072 3071 3069 3067 3065 3063 3061 3059 3057 3055 3054 3052 3050 3049 3048 3046 3045 3045 3044 3043 3042 3042
3094 3097 3098 3098 3100 3101 3100 3102 3104 3100 3096 3094 3095 3097 3099 3100 3101 3102 3102 3103 3103 3103 3103 3103 3103 3103 3103 3104 3104 3104 3104 3104 3104 3104 3104 3103 3104 3104 3104 3104 3104 3103 3102 3101 3101 3100 3098 3097 3096 3094 3092 3091 3089 3087 3085 3083 3081 3079 3078 3076 3074 3072 3070 3068 3066 3064 3063 3061 3059 3057 3054 3052 3050 3048 3047 3046 3044 3043 3041 3040 3039 3038 3037 3036 3036 3035
3092 3094 3095 3096 3097 3098 3098 3099 3099 3094 3091 3092 3093 3094 3096 3097 3098 3099 3100 3100 3100 3100 3101 3101 3101 3101 3101 3102 3101 3101 3101 3102 3102 3101 3101 3100 3100 3101 3101 3101 3100 3100 3099 3098 3097 3095 3094 3093 3091 3089 3088 3086 3084 3082 3080 3078 3076 3074 3072 3070 3068 3066 3065 3062 3060 3059 3057 3055 3053 3051 3048 3046 3045 3044 3042 3040 3038 3037 3036 3034 3033 3032 3031 3030 3029 3028
3089 3091 3092 3093 3094 3094 3094 3094 3093 3091 3089 3089 3089 3091 3093 3094 3095 3096 3097 3096 3096 3097 3098 3098 3098 3098 3099 3099 3099 3099 3100 3100 3100 3099 3097 3097 3098 3098 3098 3097 3097 3096 3095 3094 3093 3091 3090 3089 3087 3085 3083 3081 3079 3077 3074 3073 3070 3068 3066 3064 3062 3060 3059 3057 3055 3053 3051 3049 3047 3046 3044 3043 3041 3040 3038 3037 3034 3032 3031 3029 3027 3026 3024 3023 3022 3021
3086 3088 3089 3090 3090 3090 3091 3090 3089 3088 3087 3085 3085 3087 3089 3091 3092 3093 3094 3093 3092 3094 3096 3096 3095 3095 3096 3096 3096 3097 3098 3098 3100 3098 3094 3093 3095 3096 3095 3094 3093 3093 3091 3090 3089 3088 3086 3085 3083 3081 3078 3076 3074 3071 3069 3067 3064 3062 3060 3058 3056 3054 3052 3051 3050 3048 3046 3044 3042 3041 3040 3039 3037 3035 3033 3032 3030 3028 3026 3025 3024 3022 3020 3018 3017 3015
3082 3084 3086 3087 3087 3087 3088 3087 3085 3084 3083 3082 3082 3084 3086 3088 3090 3091 3092 3090 3088 3090 3093 3092 3092 3093 3093 3092 3093 3094 3095 3096 3099 3098 3093 3091 3093 3092 3091 3091 3091 3090 3088 3087 3085 3083 3082 3080 3078 3076 3073 3071 3069 3066 3064 3061 3059 3057 3055 3053 3051 3049 3047 3046 3044 3043 3041 3039 3037 3036 3035 3033 3031 3030 3028 3027 3025 3024 3022 3020 3019 3018 3016 3014 3012 3010
3078 3080 3081 3083 3083 3083 3084 3083 3082 3081 3080 3079 3080 3082 3084 3086 3088 3090 3090 3086 3084 3086 3089 3089 3089 3090 3089 3089 3090 3092 3092 3094 3096 3095 3091 3090 3091 3089 3088 3088 3087 3085 3084 3082 3080 3078 3076 3074 3072 3069 3067 3065 3063 3060 3058 3056 3053 3052 3050 3048 3047 3045 3043 3041 3039 3038 3036 3034 3032 3031 3030 3027 3025 3024 3023 3022 3020 3019 3017 3015 3014 3013 3011 3009 3007 3005
3074 3076 3077 3078 3079 3079 3080 3079 3079 3078 3076 3075 3078 3080 3082 3084 3086 3087 3085 3082 3082 3083 3085 3086 3086 3086 3086 3087 3087 3089 3089 3089 3090 3089 3088 3087 3086 3085 3085 3084 3082 3080 3078 3076 3074 3071 3069 3068 3066 3064 3062 3060 3058 3056 3053 3051 3049 3047 3045 3044 3042 3040 3038 3036 3034 3033 3031 3029 3027 3026 3024 3023 3021 3019 3018 3016 3015 3014 3012 3011 3009 3007 3005 3004 3002 3000
3070 3072 3073 3074 3075 3076 3076 3076 3076 3075 3072 3072 3075 3077 3079 3081 3082 3081 3079 3079 3080 3080 3080 3081 3082 3082 3083 3084 3084 3085 3085 3084 3084 3084 3083 3082 3081 3080 3080 3078 3076 3075 3072 3070 3068 3066 3064 3062 3061 3059 3058 3056 3053 3051 3049 3046 3044 3043 3041 3039 3037 3035 3032 3030 3029 3027 3025 3023 3022 3020 3019 3018 3016 3015 3013 3012 3010 3008 3007 3006 3004 3003 3001 2999 2997 2995
3066 3067 3068 3069 3070 3072 3073 3072 3072 3070 3067 3068 3073 3074 3076 3077 3077 3076 3076 3076 3076 3076 3077 3078 3078 3079 3080 3080 3080 3081 3080 3080 3079 3079 3078 3078 3077 3075 3074 3073 3071 3069 3067 3065 3063 3060 3058 3056 3055 3054 3053 3051 3048 3046 3044 3042 3040 3038 3037 3035 3032 3030 3027 3025 3023 3021 3019 3018 3017 3015 3014 3013 3011 3010 3008 3006 3005 3003 3002 3001 3000 2998 2996 2994 2992 2990
3063 3063 3064 3065 3066 3067 3068 3067 3066 3064 3064 3067 3070 3071 3072 3072 3072 3073 3073 3073 3072 3073 3073 3074 3074 3075 3076 3077 3076 3076 3076 3075 3074 3074 3073 3073 3072 3070 3069 3067 3065 3063 3062 3060 3058 3056 3054 3051 3050 3049 3048 3046 3044 3042 3040 3038 3035 3033 3032 3030 3027 3025 3023 3020 3018 3015 3014 3013 3012 3011 3009 3008 3007 3005 3004 3002 3001 2999 2997 2996 2995 2993 2991 2989 2987 2985
3058 3058 3060 3062 3062 3062 3063 3063 3061 3061 3063 3065 3067 3067 3068 3068 3069 3070 3070 3069 3069 3069 3070 3070 3071 3072 3072 3073 3072 3071 3071 3070 3069 3069 3068 3067 3066 3064 3063 3061 3060 3058 3056 3055 3053 3051 3049 3047 3046 3044 3043 3042 3040 3038 3036 3034 3031 3029 3027 3025 3023 3020 3018 3015 3013 3011 3009 3008 3007 3006 3005 3004 3002 3001 2999 2998 2996 2995 2993 2992 2990 2988 2986 2984 2983 2980
3053 3054 3057 3060 3059 3058 3059 3059 3058 3060 3062 3063 3064 3065 3065 3065 3066 3066 3066 3066 3066 3065 3066 3067 3068 3068 3068 3068 3067 3066 3066 3065 3065 3064 3063 3062 3060 3059 3057 3056 3055 3053 3052 3050 3049 3047 3045 3043 3042 3040 3039 3037 3036 3034 3031 3029 3027 3025 3022 3020 3018 3015 3013 3011 3009 3007 3006 3004 3003 3002 3001 2999 2998 2997 2995 2994 2992 2991 2989 2987 2985 2983 2981 2980 2978 2976
3049 3051 3054 3056 3055 3055 3056 3056 3056 3058 3060 3061 3061 3061 3062 3062 3062 3062 3062 3063 3062 3062 3062 3063 3063 3064 3063 3063 3062 3061 3061 3061 3060 3059 3058 3057 3055 3054 3053 3052 3051 3049 3048 3046 3044 3043 3041 3040 3038 3037 3035 3034 3032 3030 3027 3025 3023 3021 3018 3015 3013 3011 3009 3007 3005 3003 3002 3001 2999 2998 2997 2995 2994 2992 2991 2990 2988 2986 2985 2983 2981 2979 2978 2976 2974 2972
3045 3048 3050 3051 3052 3053 3053 3052 3053 3056 3057 3057 3057 3058 3058 3058 3058 3058 3059 3059 3058 3059 3059 3059 3059 3059 3058 3057 3057 3057 3057 3056 3055 3054 3053 3052 3051 3050 3049 3048 3047 3045 3044 3042 3041 3039 3038 3036 3035 3033 3032 3030 3029 3026 3024 3022 3019 3017 3014 3012 3010 3008 3006 3004 3003 3001 2999 2998 2996 2995 2993 2992 2990 2988 2987 2985 2984 2982 2980 2978 2977 2976 2975 2973 2970 2968
3041 3044 3046 3047 3048 3049 3049 3049 3052 3053 3054 3053 3054 3054 3054 3053 3053 3054 3054 3054 3055 3055 3055 3055 3054 3054 3053 3053 3053 3052 3052 3051 3051 3050 3049 3048 3047 3047 3046 3044 3043 3042 3040 3039 3037 3035 3034 3033 3031 3030 3029 3027 3025 3023 3020 3018 3016 3013 3011 3009 3007 3005 3003 3002 3000 2999 2997 2995 2994 2992 2990 2988 2986 2983 2981 2979 2978 2977 2976 2975 2974 2973 2972 2970 2967 2965
3038 3041 3042 3043 3044 3046 3046 3047 3049 3051 3051 3051 3049 3048 3048 3049 3049 3049 3049 3050 3050 3050 3050 3050 3050 3049 3049 3049 3048 3048 3047 3047 3047 3046 3045 3044 3044 3043 3042 3041 3039 3038 3037 3035 3033 3032 3031 3029 3028 3026 3025 3024 3022 3019 3017 3015 3013 3010 3008 3006 3005 3003 3001 3000 2998 2996 2995 2993 2992 2990 2988 2985 2982 2979 2976 2974 2973 2973 2973 2972 2972 2971 2970 2967 2965 2963
3035 3038 3038 3038 3041 3043 3044 3044 3045 3046 3047 3047 3044 3043 3044 3045 3046 3045 3046 3046 3046 3045 3046 3046 3046 3046 3045 3045 3044 3043 3043 3043 3043 3042 3041 3041 3040 3039 3038 3037 3036 3034 3033 3032 3030 3029 3028 3026 3024 3023 3022 3020 3018 3016 3014 3012 3010 3008 3006 3004 3002 3001 2999 2998 2996 2994 2993 2991 2989 2987 2985 2983 2981 2978 2976 2974 2973 2972 2971 2971 2970 2969 2968 2966 2963 2961